Theta_e
344 343 345 344 344 344 348 345 345 343 344 343 342 343 345 341 340 339 341 342 344 343 343 342 347 343 340 339 340 345 337 334 333 333 334 334 335 341 344 343 342 342 342 342 342 342 342 342 341 341 341 341 342 342 341 342 342 341 340 340 340 340 340 340 340 339 340 340 340 340 339 339 340 339 337 336 336 335 334 333 334 333 332 330 332
344 341 339 342 342 342 344 349 345 345 345 344 343 340 342 339 338 352 338 340 340 344 344 341 340 342 344 340 340 340 338 335 333 333 334 335 336 340 344 343 343 342 342 343 343 342 342 342 341 341 341 341 342 342 342 342 342 341 340 340 340 340 340 339 339 339 339 339 339 340 339 339 339 338 337 336 336 335 334 333 334 333 331 329 330
346 343 343 344 342 344 344 347 350 348 348 343 348 348 342 344 348 346 351 347 341 343 342 343 343 341 337 339 339 340 339 338 335 334 334 336 337 338 340 342 342 342 342 342 342 342 342 342 342 341 341 341 342 342 342 342 341 340 339 339 339 339 339 339 339 339 339 339 339 339 339 338 338 338 337 336 336 334 334 333 333 332 330 329 330
346 345 347 344 343 343 343 347 347 354 350 345 342 339 348 344 347 346 343 348 346 344 341 342 341 343 342 338 340 339 341 341 336 334 334 335 336 338 339 339 342 341 341 341 341 342 342 342 342 341 341 342 342 343 343 342 340 340 339 338 338 338 338 339 339 339 339 339 339 339 339 339 338 338 337 336 335 335 334 333 333 332 331 331 331
346 346 345 340 340 340 342 342 348 349 347 347 348 348 349 344 346 345 347 344 343 339 340 341 338 338 347 341 340 339 341 340 338 336 334 335 336 338 338 339 339 341 341 341 342 342 342 342 342 342 342 341 341 342 342 341 340 340 340 339 338 338 338 338 338 339 339 339 339 339 339 338 338 337 337 336 335 335 334 332 333 332 331 331 331
347 345 345 342 341 341 341 341 344 349 347 347 348 342 342 342 344 345 345 342 340 344 344 338 342 340 339 341 340 340 340 339 339 338 337 336 336 336 337 338 338 337 338 341 342 342 341 341 341 342 342 342 341 341 341 341 340 340 340 339 339 338 338 338 338 339 339 339 339 339 338 338 337 337 336 336 336 335 333 332 334 332 330 330 331
347 346 345 345 342 340 339 341 342 347 347 346 342 338 342 343 342 342 341 341 342 340 337 336 336 336 338 339 338 340 344 340 341 340 340 338 339 337 337 337 337 337 337 336 339 339 341 341 342 342 342 342 342 341 341 341 340 340 340 339 337 337 337 337 337 338 338 339 339 338 338 338 338 337 336 336 336 334 333 332 333 332 330 329 329
346 347 345 344 343 342 341 341 343 344 344 346 345 342 343 344 344 339 335 338 338 337 341 339 341 338 341 341 340 340 341 342 340 340 342 342 339 339 338 337 336 335 337 335 335 337 338 339 341 341 341 341 341 341 341 341 341 340 340 339 338 337 336 337 337 337 338 338 338 339 338 338 338 337 336 336 336 334 333 332 332 331 330 329 328
344 346 346 343 344 343 342 342 343 341 339 341 344 339 347 343 344 347 338 336 338 337 343 343 343 343 341 339 342 342 340 340 340 340 341 341 340 340 340 339 337 341 336 335 335 334 336 337 337 340 340 341 341 341 341 341 341 340 340 339 338 337 336 336 336 337 337 338 338 339 338 338 337 337 336 337 336 335 333 332 332 331 330 329 328
343 345 345 344 343 343 343 342 341 340 339 339 339 337 342 335 342 346 344 342 338 340 338 337 337 337 336 337 344 343 342 342 342 344 341 339 339 339 340 340 338 337 337 336 334 335 335 335 336 337 340 340 340 340 340 341 341 340 339 338 337 336 336 337 337 337 337 337 338 339 338 338 337 337 337 337 336 335 334 333 332 331 330 329 328
341 346 345 342 341 341 341 341 340 340 339 337 336 334 338 340 341 345 346 348 344 340 338 336 334 335 335 336 337 341 342 342 346 343 343 343 341 341 342 340 340 340 339 337 336 335 334 333 332 332 333 338 340 340 340 340 340 340 339 338 337 337 336 337 337 337 337 337 338 338 338 337 337 337 337 337 336 335 334 333 332 332 330 329 328
339 342 343 341 341 341 339 340 339 339 337 335 335 334 338 340 341 345 340 342 348 341 338 336 334 334 335 336 336 338 343 341 340 342 341 343 341 342 340 340 339 339 340 340 338 336 334 333 333 331 331 334 337 340 340 340 339 339 339 339 338 337 336 337 337 337 337 337 338 338 338 338 337 337 337 336 336 335 335 334 332 332 331 330 329
339 340 341 342 341 343 343 343 341 339 338 335 337 336 339 344 343 345 340 338 342 343 341 337 332 331 334 334 336 340 343 342 339 340 341 339 342 345 343 341 340 340 339 340 340 338 336 335 335 331 330 329 331 336 339 339 340 339 339 339 339 338 336 336 336 336 337 337 337 338 338 338 337 337 337 337 336 336 335 334 333 332 331 330 329
338 338 342 340 340 341 341 341 340 338 336 336 336 339 337 338 343 340 344 338 339 341 337 337 333 330 327 329 336 341 342 340 339 339 339 341 341 342 342 341 340 341 342 341 340 340 339 338 338 331 328 328 328 327 330 335 338 339 339 338 339 338 337 336 335 335 336 336 336 338 338 338 337 337 337 337 336 335 335 334 333 332 331 330 329
336 337 339 339 340 340 340 342 341 338 337 339 336 335 334 336 339 340 337 341 340 341 338 340 331 333 334 331 328 328 333 338 339 338 339 339 340 339 336 338 340 342 342 341 340 339 340 339 338 335 330 328 327 326 327 330 333 339 339 339 338 338 337 336 335 335 335 336 336 337 337 337 337 337 337 337 336 335 335 334 333 333 332 330 328
335 337 337 338 341 339 339 341 340 340 339 337 335 335 336 337 338 341 340 337 335 335 341 342 335 330 325 328 328 328 323 329 331 335 337 337 338 338 337 337 341 343 342 339 340 340 339 339 338 335 336 333 328 327 327 326 330 335 337 338 339 338 337 336 335 335 334 335 336 336 337 337 337 337 337 336 336 335 335 334 333 333 332 330 328
336 337 337 338 340 340 340 339 340 341 339 337 334 336 336 335 337 339 340 337 334 334 337 339 339 340 333 329 327 324 324 330 332 330 335 336 337 336 338 336 336 337 341 341 342 342 341 340 339 337 336 335 334 331 330 327 328 331 331 334 336 338 337 336 335 334 334 334 335 335 336 337 338 337 338 337 336 336 335 334 334 333 332 330 328
334 333 334 337 340 339 340 341 340 341 341 338 337 337 336 334 337 337 337 338 336 334 333 337 343 341 341 342 340 326 327 329 329 323 333 335 335 336 337 338 340 339 340 342 341 341 341 341 340 338 337 335 335 333 334 330 330 327 327 329 333 337 337 336 336 335 333 333 333 334 336 336 338 337 337 337 336 336 335 335 334 333 331 330 328
333 332 334 337 339 340 339 339 338 338 342 339 339 336 334 336 336 337 337 334 336 333 334 335 338 339 340 342 342 341 335 330 326 329 325 330 332 334 335 337 339 340 340 341 342 341 340 339 339 339 338 338 336 334 334 330 330 329 331 331 333 334 336 337 336 335 334 332 331 332 333 337 336 337 337 337 336 336 335 335 334 333 332 330 329
334 333 334 336 337 341 339 338 337 338 340 341 340 341 337 335 336 338 338 338 335 333 335 336 332 333 337 338 341 340 338 340 335 331 328 324 325 334 337 339 336 335 338 338 339 340 341 339 340 339 339 339 338 336 334 333 330 329 330 331 334 332 335 337 337 336 335 333 331 330 331 333 335 337 337 337 337 335 335 335 334 333 332 331 329
336 335 335 334 335 338 337 337 338 339 342 342 343 342 342 341 340 335 334 334 336 333 332 335 335 334 334 337 341 337 338 339 337 335 329 325 326 329 331 335 333 333 335 339 343 343 341 341 340 339 339 339 338 337 336 335 332 329 332 334 334 332 332 336 337 336 336 334 333 331 330 332 334 335 337 337 337 336 335 335 334 333 332 331 330
332 332 332 333 335 336 336 336 339 340 343 343 343 342 342 341 341 336 333 334 335 333 332 335 336 339 338 338 338 336 334 334 334 333 333 331 325 326 331 330 329 333 335 339 340 341 342 342 341 340 339 338 338 338 337 336 337 332 332 335 335 333 332 335 338 336 335 334 333 330 330 331 333 334 336 338 338 336 335 335 335 334 333 331 330
332 333 332 333 333 333 334 338 341 342 342 343 342 342 344 344 342 341 336 334 334 334 335 336 336 337 339 339 338 337 333 330 330 332 331 327 326 328 331 333 332 333 338 341 340 341 341 342 340 340 340 340 340 339 337 337 336 334 332 332 333 333 332 333 335 334 335 334 332 331 331 331 332 333 336 337 338 337 335 335 335 334 333 331 330
332 331 331 331 333 332 334 336 338 340 342 343 344 344 344 343 342 341 341 339 338 337 335 334 334 335 338 340 341 339 338 335 335 334 331 329 328 328 330 332 334 334 340 341 342 340 341 341 341 340 340 339 340 339 338 338 337 334 331 330 330 332 334 334 334 334 333 333 332 331 331 331 332 333 335 337 338 338 336 335 335 334 333 331 331
329 329 330 330 329 332 334 334 335 339 341 342 343 343 342 341 340 340 341 340 338 336 335 335 335 334 335 338 340 334 337 341 339 335 334 334 331 327 331 335 329 330 333 337 336 341 340 341 341 341 340 339 341 340 340 338 337 334 330 328 329 330 333 334 334 333 333 333 333 332 332 332 332 333 335 336 337 337 336 335 334 334 333 332 331
327 328 330 330 330 329 333 333 335 336 340 340 340 340 341 341 339 338 338 339 339 337 336 336 336 337 338 335 334 338 342 344 342 336 333 331 328 326 328 332 331 330 333 333 336 335 338 340 341 340 340 340 340 340 340 339 338 333 329 329 328 328 329 332 333 333 333 333 333 333 333 333 332 333 335 336 336 336 335 335 335 335 334 333 332
328 329 331 329 329 331 329 331 333 332 335 339 340 338 339 340 338 337 337 337 337 337 335 335 335 335 335 334 334 337 341 342 340 341 337 332 331 328 327 325 326 329 328 331 334 335 335 337 341 340 339 340 340 340 341 340 337 332 329 330 328 326 325 327 330 333 333 333 333 333 333 335 333 333 334 334 335 335 336 335 335 335 335 334 333
326 327 328 330 331 329 330 330 330 334 337 339 339 337 337 337 337 338 336 336 332 332 333 334 333 333 334 336 334 339 339 339 339 338 339 343 335 335 333 329 324 321 326 326 328 332 338 336 336 338 337 340 341 341 339 338 340 331 330 331 329 326 323 324 325 330 333 333 333 333 333 334 335 333 333 334 334 335 337 337 336 335 335 335 334
324 326 326 326 328 329 331 332 332 332 333 335 339 337 336 336 334 336 336 337 335 332 332 334 333 332 332 334 336 337 338 339 338 336 335 336 337 335 334 330 330 325 323 322 326 326 332 336 329 333 336 336 340 342 340 340 337 332 333 333 332 329 323 321 322 326 330 331 331 333 333 334 335 334 334 334 335 336 337 338 337 336 336 336 335
324 324 325 326 326 327 328 329 332 329 328 330 333 338 337 336 335 335 336 336 337 337 336 335 335 334 333 330 334 335 337 339 340 337 335 335 337 334 332 330 331 329 328 324 324 329 330 332 331 330 334 334 341 342 342 340 333 332 335 336 335 331 322 319 319 321 323 323 324 326 330 334 336 335 334 334 335 336 337 338 337 336 336 336 335
324 325 323 323 326 325 325 326 328 331 330 330 334 338 338 336 335 335 336 336 335 334 336 336 336 335 333 330 334 334 336 337 341 341 342 342 342 340 338 336 337 334 331 329 322 330 333 331 331 333 332 333 341 341 342 342 335 334 337 336 338 331 323 321 319 318 319 319 320 321 324 329 334 336 335 334 334 335 336 338 338 336 336 333 331
322 323 323 321 321 324 323 322 323 326 329 330 334 337 337 337 335 333 334 334 334 333 334 337 337 336 333 330 332 332 334 336 338 343 343 343 342 340 339 337 336 336 334 331 326 325 335 333 334 333 331 331 335 338 338 342 335 329 339 339 339 327 325 325 319 318 317 317 317 318 318 323 328 332 335 335 334 335 336 336 336 333 330 328 327
320 321 323 321 320 323 322 321 320 323 324 328 331 334 335 336 336 334 332 332 331 331 332 331 334 335 333 331 331 332 334 333 336 342 343 342 342 341 340 339 336 335 335 331 327 326 329 332 333 333 333 333 333 338 337 339 336 335 334 340 340 335 329 328 324 317 316 315 315 315 315 316 319 325 330 334 335 332 332 330 325 326 328 328 328
320 319 319 322 321 321 321 321 321 320 321 323 326 330 333 334 333 333 332 331 330 330 331 330 330 333 333 331 332 333 334 333 334 338 339 339 340 339 337 337 335 334 336 333 330 327 325 332 331 333 330 332 329 334 335 337 337 335 337 339 341 339 334 333 328 324 315 315 314 314 314 314 314 316 320 327 328 321 319 319 318 320 323 325 326
320 320 320 320 321 320 319 321 321 322 320 320 324 325 328 330 331 332 332 332 330 329 330 330 329 330 330 331 328 331 334 331 332 336 337 336 336 335 335 335 333 332 333 334 332 328 328 329 333 332 330 332 329 328 331 337 339 338 336 337 339 341 339 337 334 330 316 314 314 314 313 313 313 313 314 316 318 317 316 316 316 315 316 318 319
320 321 321 320 320 321 319 319 319 321 322 324 325 324 324 326 328 331 332 331 330 329 329 330 331 331 330 331 330 329 331 331 333 334 334 335 336 334 334 334 334 332 332 333 333 329 330 329 330 330 333 331 334 334 335 335 340 338 337 337 339 339 340 339 339 336 324 313 313 313 313 313 312 313 313 313 314 314 315 314 314 314 313 314 315
320 321 321 321 321 320 320 319 318 319 322 322 323 323 324 324 324 327 331 332 332 330 329 329 331 331 329 327 329 330 331 330 331 333 335 334 335 335 332 332 333 332 332 332 331 331 329 327 327 330 331 332 334 333 333 330 334 339 338 338 338 338 338 339 340 341 323 314 314 313 313 313 312 312 312 312 312 313 313 313 313 312 312 312 313
320 320 320 321 321 320 320 319 319 319 320 323 321 321 321 322 323 324 326 328 331 330 329 330 330 331 329 328 327 331 333 332 332 333 333 332 333 333 332 333 333 334 332 331 332 330 329 328 326 326 329 328 329 331 332 332 331 330 331 334 336 338 337 337 338 340 333 322 319 318 314 313 312 312 312 311 311 311 311 312 312 312 312 312 311
319 318 319 319 320 320 321 321 320 320 320 323 322 323 323 322 322 321 322 324 327 330 330 332 331 331 330 328 327 328 333 334 332 333 333 332 331 330 332 332 333 332 333 333 331 329 328 327 328 328 327 329 330 327 330 331 330 333 330 330 330 334 337 336 336 338 336 327 321 318 318 317 316 315 311 310 310 310 310 311 311 312 313 312 311
317 317 317 317 319 320 321 321 321 322 321 315 311 312 316 321 323 322 323 325 325 325 326 327 329 331 332 331 331 330 330 335 334 334 333 331 331 329 332 332 331 331 331 330 331 330 328 327 326 325 328 328 330 331 331 329 327 328 332 329 325 328 332 336 337 335 336 331 328 325 319 317 317 316 313 312 312 312 311 311 311 313 313 312 311
317 316 317 317 317 318 320 321 321 318 311 309 306 304 308 312 317 322 323 324 325 325 325 327 329 328 329 329 330 330 335 335 335 332 333 333 332 330 332 334 333 332 331 330 330 328 326 327 326 327 327 326 325 324 326 327 325 324 330 330 329 330 332 333 335 337 338 335 332 329 327 324 322 322 320 319 318 315 314 312 314 313 313 311 310
315 316 316 316 316 317 318 320 314 310 307 305 304 300 300 307 312 317 320 322 324 324 324 324 326 328 328 328 330 330 334 335 332 322 318 319 324 329 331 331 332 331 331 330 329 329 328 326 326 326 324 323 324 327 326 327 328 331 330 330 329 332 331 328 331 336 340 337 334 332 332 331 327 326 326 323 324 321 320 318 317 317 314 310 309
315 315 314 314 315 315 315 312 309 307 304 301 297 294 295 297 307 311 316 319 320 322 324 323 322 324 327 326 327 329 330 333 331 317 313 310 308 311 316 323 330 332 329 328 328 330 328 327 328 328 326 325 326 328 329 329 330 330 329 330 330 332 328 324 322 329 335 333 328 328 328 335 332 329 330 329 329 329 326 323 315 312 311 311 310
314 314 313 313 314 313 312 309 307 306 303 299 294 294 294 294 297 306 313 317 319 319 321 323 323 323 323 324 326 329 328 328 328 325 319 310 304 303 303 305 306 308 315 326 328 328 328 327 327 328 327 327 328 329 328 328 328 329 329 329 330 327 324 323 324 323 334 333 328 325 327 331 335 332 331 333 334 334 333 323 315 312 311 309 309
314 312 312 312 312 312 309 306 305 304 303 297 294 295 294 294 294 300 311 316 318 319 320 321 321 320 322 324 325 328 327 332 329 326 325 324 312 304 306 306 305 304 300 300 305 325 328 328 328 328 328 328 328 329 330 329 331 328 328 328 327 326 325 324 325 327 329 333 326 327 325 329 332 330 330 333 335 337 337 321 315 313 311 310 309
313 312 312 311 312 310 308 306 304 303 301 298 294 294 294 294 293 296 311 316 318 319 320 320 320 321 321 321 321 323 326 324 319 323 328 328 328 326 324 323 324 321 305 300 301 302 313 325 325 324 327 330 329 330 334 333 330 327 327 326 326 327 325 325 329 331 333 338 331 325 325 328 330 330 328 331 335 337 338 329 317 313 311 310 309
312 312 311 310 311 311 309 307 305 302 300 294 293 294 294 294 293 299 312 317 318 319 321 322 323 323 324 324 324 322 323 311 308 312 317 321 325 327 326 325 325 327 328 324 317 315 313 318 322 324 325 326 327 328 331 333 331 330 331 329 329 328 328 330 332 333 333 336 334 330 324 328 330 328 328 330 332 333 337 326 319 313 311 310 309
313 313 313 312 311 310 310 309 307 304 302 293 293 293 294 293 295 308 313 316 319 321 322 322 322 322 323 323 322 323 311 307 301 297 303 315 322 322 322 323 322 323 322 326 314 318 328 325 323 324 326 328 320 327 327 328 331 333 331 330 329 328 326 324 324 329 328 332 334 330 326 327 330 328 329 332 333 332 335 337 324 317 313 309 309
312 312 312 311 311 310 309 309 309 306 305 296 293 293 294 293 298 307 311 313 315 319 321 324 322 323 323 321 316 312 308 304 296 294 296 313 319 319 320 320 321 321 322 325 316 309 305 303 304 306 306 305 304 303 303 303 313 322 327 325 324 326 324 322 324 325 327 330 332 332 329 326 329 329 329 332 332 331 332 334 336 321 314 312 309
311 311 312 311 311 310 309 308 308 307 305 299 293 293 294 294 300 305 308 311 315 315 314 318 321 319 317 319 314 306 304 301 293 293 295 309 315 316 316 317 317 318 320 322 320 320 310 310 309 304 301 300 301 301 303 303 303 309 322 322 325 325 322 321 321 323 325 328 329 335 328 327 330 330 329 330 330 331 332 334 333 331 317 311 309
311 311 310 310 310 310 310 309 309 309 306 302 295 293 294 294 299 304 308 309 307 308 310 311 315 317 311 311 309 304 302 298 292 293 293 305 311 312 313 313 313 313 317 313 315 315 315 316 317 319 318 317 323 323 322 310 307 313 320 324 326 325 322 321 320 319 318 320 326 334 329 327 328 329 327 324 324 329 332 333 332 332 330 328 324
Wind_Speed
2 1 2 1 1 2 2 4 4 4 4 4 5 3 3 5 5 5 4 4 3 5 5 4 5 3 4 1 3 4 5 8 7 7 6 5 6 11 16 15 14 13 13 13 13 13 13 13 12 13 13 13 13 15 15 15 15 13 12 12 12 12 12 12 12 12 13 13 14 15 16 16 16 16 16 15 15 15 13 12 15 15 14 12 16
2 2 0 1 2 3 3 2 4 4 3 3 4 4 2 4 4 1 5 3 4 5 4 4 3 2 3 5 5 6 5 7 8 7 6 6 6 8 15 14 14 14 14 14 14 13 13 13 13 13 13 13 14 15 15 15 15 14 12 12 12 12 12 12 12 11 12 12 14 14 16 16 17 16 15 15 15 14 12 12 15 14 13 12 14
2 3 3 2 2 3 2 2 1 3 2 3 2 2 2 2 2 2 1 1 4 4 4 4 4 6 9 10 7 5 5 6 7 8 7 6 6 6 10 14 13 13 13 13 14 13 13 13 13 13 13 13 14 15 15 15 15 14 13 12 11 11 12 12 13 12 12 12 13 14 16 16 16 16 15 15 15 14 13 13 14 14 13 11 13
3 3 3 3 3 2 1 1 3 1 2 2 3 3 3 3 3 1 3 0 2 3 5 5 6 7 6 6 6 7 5 3 8 8 7 7 6 6 6 8 12 13 13 13 13 13 13 13 13 14 14 14 14 15 14 15 14 13 13 13 12 11 11 11 11 11 11 13 14 15 16 16 16 16 15 15 15 14 14 13 13 14 12 12 14
4 4 3 3 3 2 2 2 1 2 2 2 3 3 3 5 2 4 3 1 2 3 6 8 7 3 4 1 4 8 6 4 6 8 8 7 6 6 6 6 7 11 12 13 14 13 13 13 13 14 15 14 14 14 14 15 14 13 13 13 12 12 11 11 11 10 10 11 12 14 15 17 16 16 16 15 15 14 14 12 13 15 14 14 14
5 4 3 4 4 3 3 4 2 1 2 2 2 5 1 5 1 1 2 6 6 4 6 4 3 8 3 8 4 5 6 5 5 7 7 7 7 6 6 6 6 5 6 11 11 12 14 13 13 14 15 15 14 14 15 15 15 14 13 13 12 12 12 11 11 10 10 10 11 13 15 16 16 17 17 16 15 14 13 12 12 14 13 13 13
5 5 5 4 4 5 5 5 3 2 2 2 4 4 4 4 4 4 3 4 5 5 6 7 8 10 11 6 6 5 3 5 5 6 7 7 7 7 6 6 6 5 5 4 7 9 11 13 13 14 14 15 15 15 14 14 14 15 14 13 12 12 11 11 10 10 10 10 11 12 15 16 17 17 17 17 16 15 13 12 13 14 13 11 11
6 6 5 4 4 4 5 3 2 1 2 1 2 6 7 6 6 7 5 6 3 7 8 3 3 4 5 6 6 4 5 3 5 6 5 5 6 6 6 6 6 5 6 5 4 5 10 10 12 13 14 15 15 15 15 14 14 14 14 14 13 12 11 10 10 10 10 11 11 12 14 16 16 16 17 18 17 16 14 13 14 14 13 12 11
7 6 5 6 5 5 4 3 1 1 1 5 4 3 2 2 4 3 9 6 5 9 4 6 7 7 3 5 3 6 6 4 4 6 7 5 6 7 6 6 7 8 5 6 5 4 7 9 9 13 13 14 14 15 15 15 14 14 15 14 14 13 12 11 10 10 11 11 11 13 14 15 16 16 18 18 17 16 15 14 14 14 14 13 12
6 6 5 5 5 5 3 2 2 1 1 5 3 4 4 8 7 2 3 9 11 5 1 5 5 5 8 10 0 5 6 5 3 3 4 5 6 6 5 5 6 7 6 6 6 5 4 7 9 8 11 13 14 15 15 15 15 15 15 14 13 13 13 12 11 11 11 11 11 13 14 15 16 17 18 18 17 16 15 15 15 14 14 14 13
4 4 6 5 5 4 3 3 3 3 3 4 3 5 4 11 5 2 3 1 1 3 3 5 5 5 6 4 10 2 6 7 3 3 2 2 4 5 7 5 5 5 6 6 6 5 6 4 3 3 4 9 10 13 15 15 15 16 15 15 13 12 12 12 12 11 12 11 12 12 14 15 16 18 18 18 17 17 16 15 16 15 14 14 13
5 4 7 6 5 6 6 4 4 4 3 4 2 6 10 9 4 1 4 2 3 5 4 6 6 8 5 5 6 10 0 5 6 4 4 1 1 3 4 5 4 6 5 6 6 6 6 6 6 5 4 6 9 11 13 15 15 15 15 16 15 14 12 11 11 11 12 13 12 13 14 15 17 18 18 18 17 16 16 15 15 14 14 14 13
9 5 6 7 6 5 5 6 5 4 5 5 5 7 12 6 4 1 6 3 3 4 4 5 7 5 3 3 2 5 3 3 4 3 3 5 4 1 3 4 4 6 6 5 6 7 6 6 5 7 6 5 5 8 11 13 12 14 16 16 16 16 14 12 11 11 11 12 13 13 14 14 16 17 18 18 18 18 17 17 16 15 14 13 13
10 7 5 6 6 5 4 4 6 5 4 4 8 4 8 5 1 3 2 6 4 5 7 5 2 4 4 2 2 2 2 4 3 4 3 3 4 1 5 0 5 4 5 5 6 6 5 6 5 8 6 6 5 4 3 7 10 12 15 16 16 16 15 14 12 11 11 12 13 13 14 15 16 17 18 18 17 18 17 17 18 17 15 14 13
8 6 4 5 7 7 6 5 6 6 5 3 10 7 9 9 4 2 5 3 3 3 7 1 4 3 2 2 2 2 1 1 1 5 2 3 3 5 6 3 6 4 5 4 5 6 5 5 4 8 9 8 7 7 5 5 6 11 12 15 16 17 16 15 14 12 12 12 13 13 13 14 15 17 17 16 17 17 18 17 18 17 16 14 13
7 6 7 6 6 6 5 4 5 6 5 4 8 8 10 8 4 4 3 5 4 3 3 3 4 9 2 3 3 3 2 2 1 1 1 2 4 1 4 2 2 2 6 5 5 5 5 5 5 5 5 7 8 8 8 7 11 14 16 14 13 17 18 17 15 14 13 13 13 13 14 15 16 16 16 16 16 17 17 17 17 17 16 16 15
6 8 7 5 4 5 6 6 5 4 5 4 7 6 10 9 4 3 4 3 6 3 3 3 5 3 5 3 2 1 1 4 4 1 1 1 3 2 1 3 3 6 4 6 6 4 4 3 5 5 5 4 5 8 8 9 10 10 12 13 14 17 18 17 17 16 15 14 14 14 14 15 16 16 16 16 17 18 18 18 17 17 17 17 16
6 5 7 6 4 5 6 6 6 4 5 6 7 6 9 9 7 3 5 7 6 4 5 5 4 2 2 1 1 2 5 2 3 2 0 0 1 0 2 2 2 4 4 1 3 6 5 5 5 6 5 5 3 4 3 8 8 8 7 9 16 16 18 17 18 17 16 15 14 15 15 15 16 16 16 16 17 17 19 18 17 17 17 16 17
7 10 9 7 4 5 5 5 5 5 4 5 7 8 8 9 8 3 3 2 6 7 7 6 1 2 2 2 2 0 7 5 3 4 2 1 1 1 2 3 3 4 4 2 3 5 5 5 5 5 5 5 5 5 5 7 11 10 12 13 16 16 18 18 18 18 17 16 15 15 16 15 16 16 16 16 17 18 18 18 18 15 15 17 17
7 9 6 6 6 4 4 3 4 4 4 3 4 7 10 13 10 5 3 3 3 8 6 5 8 6 2 1 2 2 4 1 4 3 4 4 1 1 1 3 2 2 2 4 5 4 4 5 6 6 6 5 4 5 5 7 8 9 10 16 16 17 18 19 19 19 18 18 16 16 16 18 17 17 17 17 18 17 17 16 16 15 16 17 17
2 3 3 2 5 2 2 4 3 4 4 3 2 4 4 4 7 8 4 2 3 0 7 5 4 5 4 1 2 2 0 1 3 2 2 3 2 3 2 1 1 3 6 5 6 3 5 5 6 6 6 6 6 5 5 5 7 9 10 18 17 18 18 19 19 19 19 18 19 18 18 18 19 18 18 19 19 18 16 17 17 17 17 17 18
3 0 2 3 4 2 2 5 5 4 4 4 4 3 2 2 6 11 10 8 6 6 8 4 7 3 3 3 3 3 2 2 1 2 3 1 3 4 5 6 5 5 6 6 5 5 4 5 6 6 6 6 5 6 5 6 3 8 10 18 18 18 18 18 20 19 19 18 20 18 18 19 21 19 19 19 19 20 18 18 17 16 18 18 18
1 2 4 3 4 4 4 5 6 5 4 4 4 3 3 3 5 8 10 9 6 7 8 6 5 6 3 4 5 6 6 4 5 3 2 2 1 2 3 5 7 4 7 7 7 6 6 5 6 6 6 6 7 6 6 6 6 8 14 19 18 19 19 20 19 19 20 20 18 18 19 19 22 22 19 20 21 21 21 19 18 17 18 19 19
1 2 2 2 3 5 8 4 2 4 4 3 2 3 3 2 4 4 6 8 7 8 7 6 5 6 6 4 4 3 4 4 4 6 6 4 5 3 4 3 4 4 3 6 6 7 7 7 7 7 7 6 7 7 7 8 7 10 12 19 19 19 20 20 20 18 16 17 18 19 19 20 22 23 21 20 21 22 22 20 18 18 18 19 20
5 4 4 4 3 4 4 3 3 4 3 3 2 3 3 3 3 4 5 5 5 5 6 4 3 5 6 4 2 4 7 2 5 5 4 3 4 1 2 3 4 3 2 2 3 5 6 8 8 8 7 7 6 7 6 7 6 8 11 13 20 19 19 20 20 19 18 18 18 19 19 20 22 23 22 21 20 20 20 20 19 18 19 19 20
6 6 3 4 2 4 5 5 5 3 1 3 4 3 3 3 4 3 5 5 5 5 3 2 3 4 4 5 2 6 7 0 2 5 5 5 3 6 2 2 3 3 2 2 3 4 5 7 9 8 8 9 8 6 7 8 7 10 14 10 15 18 18 19 20 20 20 19 19 20 20 21 22 22 22 21 18 16 18 19 19 18 18 19 20
4 4 4 1 4 4 5 3 7 9 8 4 5 4 4 4 4 3 3 5 6 7 7 5 4 8 7 6 8 10 4 0 0 1 4 6 5 4 4 4 3 1 2 3 3 8 6 6 9 9 8 9 8 7 8 7 9 13 14 10 10 18 18 19 18 18 19 20 20 20 20 21 20 19 19 19 18 16 16 19 19 20 21 21 21
4 4 5 4 1 4 4 3 7 5 4 5 6 5 4 5 4 3 3 4 6 5 4 5 3 6 8 9 10 6 2 2 1 2 2 2 2 1 1 4 4 4 3 3 5 7 8 6 6 8 8 9 9 9 10 10 8 13 15 8 8 11 18 18 18 18 19 20 20 20 20 19 17 17 18 18 18 16 16 18 20 22 24 24 24
5 4 3 4 4 1 2 1 4 5 4 3 4 7 6 5 5 3 3 3 5 7 6 5 4 5 7 10 9 3 2 2 2 3 3 3 4 3 1 6 7 4 4 4 5 6 7 8 6 8 9 7 9 8 9 9 9 11 9 9 9 9 15 18 18 18 18 18 18 20 22 22 20 19 18 20 21 18 16 18 22 24 25 25 25
2 4 3 2 3 4 3 3 3 1 3 4 5 2 6 5 5 4 4 3 3 5 6 6 4 4 3 6 11 5 3 3 4 5 5 5 4 6 6 8 12 9 2 3 3 5 2 7 6 6 9 9 8 8 7 9 11 15 10 10 9 10 17 19 18 18 18 17 18 18 18 20 22 21 22 23 24 23 19 18 22 25 25 24 23
3 1 3 5 2 2 4 4 4 1 1 3 4 1 1 5 5 4 3 3 3 4 4 4 3 5 6 10 12 7 4 5 5 6 7 6 5 6 7 10 8 3 4 2 3 2 2 3 6 3 9 9 9 9 8 9 10 15 11 10 10 13 19 17 19 19 18 18 18 17 18 18 17 19 20 22 24 23 23 20 21 23 23 21 21
5 2 2 3 3 2 2 2 4 4 1 3 5 0 1 2 5 3 2 2 3 4 4 4 2 4 7 9 10 7 5 4 6 6 5 4 4 4 3 4 5 4 3 3 3 5 2 2 1 2 3 6 9 11 8 6 11 18 10 10 12 11 13 11 20 20 20 19 19 19 18 18 18 16 17 19 20 21 21 20 19 20 20 20 20
5 4 2 2 3 3 2 3 2 2 3 2 1 2 1 1 4 4 3 2 4 4 4 5 2 3 6 10 10 9 5 6 6 5 4 3 3 3 3 3 5 5 4 4 5 5 4 5 5 2 3 3 2 10 9 7 8 10 11 10 10 8 9 9 11 20 21 21 20 20 20 19 18 18 16 17 19 20 20 19 17 19 20 20 20
5 5 6 2 2 2 3 4 3 2 2 3 4 2 1 1 2 3 4 3 3 4 4 3 3 3 4 10 9 7 6 6 7 6 3 2 1 2 3 4 4 5 4 4 4 5 6 3 4 4 5 4 4 3 7 7 8 9 10 9 9 9 10 8 8 11 21 20 21 21 20 20 19 18 18 18 17 18 19 19 17 17 19 20 21
5 5 5 6 3 2 2 4 4 2 1 2 3 4 4 2 2 3 3 3 3 4 4 2 1 1 1 3 6 6 6 7 8 4 2 2 3 3 3 2 4 5 6 5 5 6 5 5 3 4 5 4 5 6 4 5 9 10 11 9 8 8 8 9 9 8 17 21 21 20 20 20 19 19 19 19 18 17 17 18 19 17 18 19 20
5 4 6 7 6 2 4 3 4 4 1 1 1 2 4 5 2 1 4 3 3 5 5 3 3 2 2 4 7 10 9 8 5 3 3 3 2 0 2 4 6 6 7 8 8 7 5 5 3 4 3 3 3 4 4 1 7 7 9 8 7 7 8 10 10 8 14 23 22 22 21 20 20 20 20 20 20 19 17 17 17 19 18 19 20
5 5 6 6 5 6 4 4 5 5 1 0 1 2 2 3 4 3 0 3 4 3 3 3 3 3 2 5 8 10 7 3 1 0 1 2 1 0 1 1 2 4 4 6 6 4 1 3 6 7 10 9 4 3 3 5 4 8 6 7 8 7 7 8 8 10 15 24 24 23 22 22 22 22 22 21 21 20 20 19 18 18 19 20 20
5 5 6 5 6 7 7 6 5 6 2 1 2 2 2 2 3 3 3 2 2 4 3 3 3 3 3 3 8 9 3 3 1 1 0 1 1 1 1 1 1 2 3 1 2 5 3 2 2 3 1 3 8 8 7 3 4 5 6 7 7 7 8 7 6 5 5 11 9 12 16 18 21 22 22 21 21 21 20 20 20 20 19 20 20
5 5 5 6 5 6 8 6 6 6 5 1 2 1 2 3 2 3 3 3 2 1 3 5 4 4 4 3 6 12 6 2 2 1 2 1 0 2 1 1 3 1 2 1 2 5 5 1 2 2 3 2 1 3 7 9 12 7 5 3 5 4 7 8 6 5 5 7 10 16 16 16 17 15 18 20 20 20 20 20 20 21 21 20 20
7 7 6 7 7 7 5 6 6 5 6 11 8 8 7 5 2 2 2 2 2 3 4 4 5 4 3 5 7 8 6 1 2 3 3 2 1 2 2 3 2 3 3 4 4 5 3 3 3 3 1 1 2 2 4 4 3 8 6 3 6 4 5 5 7 8 5 7 7 6 7 9 11 14 17 18 21 22 22 20 22 22 23 22 21
6 7 8 9 8 8 7 6 7 8 9 7 7 7 6 7 8 6 5 5 4 5 4 4 2 3 4 4 4 4 3 1 5 5 4 3 2 2 2 2 2 1 1 3 2 1 2 3 4 2 2 3 3 2 4 3 5 8 3 2 4 9 6 3 3 4 4 6 6 6 7 9 9 9 9 9 12 17 18 21 18 22 23 22 22
7 7 8 8 8 9 9 7 9 7 8 6 10 13 9 6 6 5 4 2 2 3 4 5 4 2 2 3 4 8 3 3 7 8 8 8 8 5 3 2 2 2 2 2 3 3 3 4 4 3 4 5 4 5 4 4 3 3 6 4 5 6 4 9 4 1 1 3 4 6 6 7 8 8 8 11 11 13 12 13 15 17 20 23 23
7 7 7 8 9 9 9 9 8 7 6 7 11 10 10 11 7 5 5 4 3 3 3 4 4 4 3 3 3 5 5 7 7 10 9 9 10 11 9 8 5 4 3 5 5 4 4 5 4 3 4 5 5 5 5 4 2 4 5 4 6 5 2 4 8 4 1 3 2 4 4 6 8 9 9 11 11 10 11 13 19 23 24 24 25
6 6 6 7 7 7 7 8 8 7 6 10 10 11 11 10 7 5 4 4 4 4 4 2 2 3 4 4 4 2 3 4 2 4 6 8 8 8 9 10 10 8 8 7 5 5 5 5 5 5 4 6 5 4 4 3 4 3 4 4 4 1 0 3 5 9 4 1 3 3 7 3 6 8 10 11 10 10 12 15 20 21 22 25 25
4 5 5 6 6 6 6 7 7 7 6 9 12 12 10 10 8 6 3 4 5 4 5 4 2 4 4 3 3 4 4 9 8 5 4 3 9 12 11 11 10 11 12 13 11 8 4 5 6 6 6 5 4 3 4 3 3 4 3 4 3 3 4 6 9 9 3 2 2 5 7 6 6 7 8 11 8 7 10 15 20 22 24 24 25
3 4 4 5 5 5 5 5 5 7 7 9 12 14 13 14 13 8 4 4 4 5 5 4 3 3 3 4 5 4 4 8 9 7 3 1 2 2 3 4 5 9 12 13 14 15 11 7 7 8 8 4 5 3 2 2 2 2 3 3 2 0 2 6 7 4 4 5 7 2 5 7 6 7 10 12 9 9 10 13 17 21 23 24 25
3 4 3 4 4 4 4 3 5 5 4 8 9 11 12 13 14 9 4 4 5 4 3 3 4 3 2 3 3 5 4 7 5 6 6 5 2 2 2 1 3 4 2 4 7 6 7 7 9 10 9 6 6 6 4 2 6 6 6 3 2 3 5 6 8 8 8 7 7 4 7 10 4 8 11 12 10 10 11 15 18 19 22 24 25
2 2 2 3 4 5 5 4 4 4 3 7 9 10 11 14 13 6 4 5 3 2 2 3 4 4 3 3 4 2 9 5 9 12 10 6 4 3 3 2 3 4 4 5 5 2 4 7 8 8 8 7 7 6 4 1 3 4 4 4 3 4 6 7 9 7 7 6 8 8 6 10 8 8 10 11 10 10 11 10 16 21 22 23 24
2 2 2 3 3 4 5 5 5 4 4 7 10 11 12 14 10 5 5 5 5 3 2 2 3 3 4 8 10 9 7 8 12 15 16 10 5 6 6 6 5 5 5 4 6 7 10 11 12 12 12 12 12 11 11 10 8 5 3 3 6 5 7 8 9 8 11 8 5 9 9 10 10 10 9 10 11 11 10 12 12 16 23 24 25
3 3 2 2 3 4 5 5 5 3 3 6 10 10 11 14 10 6 5 6 4 7 7 6 4 8 13 22 14 10 8 7 11 13 14 10 5 5 4 5 6 6 6 6 7 7 11 10 9 8 10 12 14 14 13 12 12 3 3 7 6 5 7 7 9 8 8 7 6 8 8 10 9 9 9 9 9 7 9 10 10 11 15 18 23
3 3 3 2 2 3 3 4 6 3 2 4 7 10 12 13 11 6 6 7 8 7 7 7 5 4 8 13 18 12 9 6 8 9 10 8 4 4 4 3 4 5 3 7 8 8 9 9 9 9 9 10 8 6 7 13 14 10 7 9 8 8 9 9 9 8 9 8 8 6 8 8 10 9 7 5 7 7 5 7 8 5 10 11 10
Wind_Direction
140 99 354 9 314 346 167 159 179 189 191 195 222 247 204 233 213 201 183 171 133 146 173 176 162 216 83 299 226 273 121 113 122 130 134 127 123 124 122 122 121 123 123 123 125 125 129 130 131 132 134 131 132 133 134 132 130 129 130 130 131 132 135 135 137 139 137 141 143 143 140 142 139 134 134 133 129 126 127 128 122 119 119 124 124
149 138 209 250 35 320 287 186 171 186 201 210 187 227 248 257 264 239 186 161 149 155 172 169 152 56 56 226 186 199 129 130 131 132 136 127 126 128 125 125 128 128 127 126 128 130 131 133 133 134 132 135 138 137 135 134 131 130 127 128 130 133 134 138 140 139 135 141 142 145 145 146 143 137 136 137 130 130 128 124 122 120 122 125 125
164 162 192 163 170 229 248 258 204 177 180 239 180 95 285 219 282 355 31 165 173 148 168 155 139 156 210 211 159 141 135 132 132 130 130 131 133 133 128 129 131 131 129 130 131 132 134 135 136 136 136 137 141 138 137 135 132 132 130 128 128 131 138 141 141 143 145 142 140 149 149 149 144 141 139 140 136 132 132 127 125 123 126 130 121
181 193 163 141 171 238 302 277 221 147 182 240 114 199 254 13 10 196 207 349 301 166 133 173 174 193 240 124 154 131 138 143 131 129 132 139 141 128 131 133 135 136 136 134 134 134 134 136 139 137 137 142 142 141 140 137 134 134 133 131 131 134 136 138 139 142 144 146 152 151 152 152 148 145 142 141 140 137 136 134 132 129 128 126 121
178 205 165 156 160 179 241 246 263 201 203 252 99 96 42 302 64 355 326 245 255 239 186 178 161 201 110 186 189 135 144 152 136 132 139 142 136 139 136 138 138 137 136 136 138 136 137 139 139 139 141 147 149 146 147 141 139 137 136 135 135 137 138 143 144 145 144 148 152 155 157 152 150 149 146 145 143 141 139 138 136 133 130 130 130
182 194 167 175 166 174 224 245 248 277 228 192 113 103 168 236 91 28 350 40 296 340 329 183 105 139 122 232 153 133 132 149 140 135 140 141 142 143 144 136 142 148 140 143 144 143 140 141 143 143 147 148 152 154 153 148 146 143 140 139 139 138 140 143 147 148 153 155 156 160 156 154 153 153 151 149 145 143 141 141 139 137 137 137 139
201 169 170 184 176 186 213 231 220 205 239 220 119 125 198 259 145 173 138 95 297 211 232 236 168 143 166 184 127 125 129 130 130 133 137 143 145 145 144 143 151 146 141 132 131 131 138 147 147 148 152 152 153 159 159 155 153 149 145 143 142 142 142 145 150 153 158 163 163 161 160 158 157 158 153 150 148 146 145 142 138 140 137 135 133
206 184 170 172 188 199 209 228 250 43 343 297 135 180 190 190 211 168 139 156 168 253 221 240 90 132 123 112 134 135 117 123 123 125 137 146 143 143 149 158 146 146 147 134 132 143 150 149 152 152 153 155 157 160 160 160 158 154 152 148 147 147 146 147 153 158 157 164 166 165 162 162 161 160 156 153 152 150 149 146 144 143 141 138 134
211 190 175 163 186 209 207 222 293 349 70 24 14 316 22 320 243 224 141 167 152 244 288 34 38 11 39 122 139 132 123 114 133 138 149 153 140 151 157 158 147 149 146 145 135 135 142 153 155 159 158 157 159 162 164 163 164 161 157 156 153 153 154 153 156 157 158 166 167 171 167 167 165 162 160 159 156 154 153 151 150 147 145 143 140
226 191 177 170 177 200 191 175 141 257 52 81 270 274 77 237 255 282 171 158 184 163 40 74 67 69 30 343 164 128 124 116 111 128 133 143 155 150 148 150 146 152 150 147 143 141 142 145 150 161 167 163 164 164 166 168 166 165 162 159 161 159 158 158 158 158 159 163 169 171 171 169 168 165 164 163 160 159 157 156 155 151 150 149 147
247 185 158 161 170 178 190 187 159 174 149 142 226 273 194 232 219 224 43 17 99 105 96 77 76 76 78 14 329 300 102 122 128 115 104 115 138 140 139 149 150 149 148 145 145 149 143 150 150 150 146 159 172 171 170 170 172 171 169 165 164 165 164 165 163 161 157 159 165 170 172 172 173 169 169 167 165 162 160 159 159 157 153 154 151
255 199 165 162 170 172 181 187 197 170 164 148 201 259 237 219 196 188 114 10 31 96 101 92 79 63 53 65 347 328 52 118 125 119 106 38 1 133 146 149 153 152 156 144 154 152 159 166 173 152 146 163 171 179 175 173 176 179 174 170 168 168 170 171 169 166 159 155 162 169 172 175 176 173 173 170 168 166 161 161 163 161 157 156 155
225 225 180 164 174 179 171 174 180 169 152 179 144 226 246 220 164 121 137 147 92 110 102 120 107 67 23 69 162 250 328 35 78 56 124 141 218 155 157 147 150 145 155 154 155 162 171 185 172 139 150 147 163 175 182 175 183 183 181 178 173 170 172 175 174 170 164 161 163 169 174 176 177 176 175 172 170 171 167 164 164 163 163 163 161
216 219 190 176 165 175 177 174 185 194 204 167 106 198 277 284 214 140 186 171 147 157 141 134 48 141 140 193 117 264 23 53 69 108 50 73 100 344 10 154 149 152 140 161 152 167 174 189 168 145 148 155 157 158 170 180 188 196 188 187 181 177 175 176 177 177 170 166 166 167 173 178 179 179 178 174 174 173 170 170 166 166 165 167 167
220 209 191 183 179 176 192 184 176 182 193 133 117 176 239 241 225 200 185 164 131 162 160 219 138 130 84 126 148 151 326 55 19 43 53 68 36 68 91 308 298 148 156 149 164 171 181 193 166 144 160 159 163 165 166 180 185 197 202 196 191 184 181 179 178 185 181 170 170 169 171 176 180 181 180 176 176 176 174 173 172 170 165 168 170
214 204 198 203 177 174 178 182 179 183 173 141 121 179 236 237 214 255 233 162 147 198 196 201 161 134 127 223 156 155 149 176 137 92 70 73 85 357 140 174 277 232 156 173 174 179 190 182 155 155 164 164 162 167 176 181 186 188 202 204 204 193 189 185 181 184 191 179 172 173 174 176 178 182 184 181 178 178 177 178 178 175 169 168 171
235 202 196 207 175 168 179 187 191 167 158 136 133 176 220 241 217 241 242 230 168 145 210 248 197 176 142 125 107 227 219 138 133 129 287 172 117 168 29 110 46 297 256 169 165 193 173 202 150 158 162 194 162 173 179 183 183 183 187 185 199 202 197 192 188 187 191 190 181 178 180 182 184 187 187 188 183 183 181 182 183 178 173 171 174
184 245 227 203 188 172 181 184 186 172 143 150 135 140 170 236 253 190 1 324 305 166 169 228 243 223 273 15 294 202 156 160 170 156 215 18 78 117 123 166 164 200 264 17 205 171 184 195 159 161 172 180 172 180 151 163 171 175 182 185 184 198 202 198 193 192 188 196 191 191 184 189 189 193 192 190 190 187 185 184 184 183 176 176 178
192 198 232 210 189 182 188 185 188 187 157 157 145 137 168 210 225 187 172 233 300 260 182 185 99 297 272 278 281 348 129 140 185 107 142 160 252 184 177 181 188 230 229 223 227 178 180 177 165 170 178 184 175 194 163 169 167 174 179 185 185 188 200 200 200 201 193 193 199 196 199 186 195 192 195 193 193 190 190 188 188 184 175 180 183
196 199 235 247 214 169 182 197 192 191 173 171 183 162 162 183 182 179 102 97 272 268 238 180 183 192 223 237 283 77 144 221 140 152 140 147 189 171 219 167 145 254 219 209 244 212 190 171 173 182 174 192 190 186 199 188 173 175 176 186 185 188 196 201 204 204 203 199 206 207 206 202 198 198 195 195 194 195 194 191 191 185 180 183 185
257 205 224 284 297 130 178 215 212 201 188 177 155 163 160 132 126 126 125 182 151 22 306 268 215 196 167 202 231 108 106 53 116 105 147 124 127 169 186 128 132 261 237 215 225 212 192 188 179 186 179 195 193 197 210 223 163 178 175 180 182 190 195 199 205 207 213 203 202 203 208 208 208 201 204 199 196 195 194 194 194 187 186 186 186
70 0 106 299 257 270 192 216 209 221 190 153 150 164 155 148 119 129 153 182 177 184 203 267 293 262 197 161 195 151 168 123 92 114 40 61 156 182 187 170 206 226 208 213 206 226 209 197 181 183 186 193 191 199 209 229 188 172 176 173 179 187 193 198 206 208 211 202 211 207 207 207 211 202 209 203 197 196 196 196 196 189 186 189 188
115 191 94 172 195 238 256 228 214 213 186 153 148 149 138 123 117 130 149 165 166 187 211 185 237 280 239 213 202 185 188 187 171 167 146 154 188 202 190 189 203 204 202 199 196 199 214 202 194 186 195 193 192 193 207 220 222 194 169 176 179 185 190 199 208 211 206 210 209 211 207 207 210 205 211 210 202 198 196 197 198 194 188 188 191
52 52 107 290 296 213 232 243 231 220 172 131 140 128 127 132 127 130 142 158 163 152 178 199 207 257 275 236 238 225 229 188 177 167 172 175 169 198 183 199 225 217 158 190 194 196 204 205 201 197 196 202 193 193 194 202 220 229 167 177 180 184 190 197 204 216 218 213 209 206 206 210 211 209 210 214 208 202 197 197 199 197 195 192 193
6 40 20 35 323 299 257 246 227 219 161 154 132 104 115 121 115 115 111 119 147 159 167 201 201 236 275 287 20 315 272 213 158 169 162 133 144 161 270 174 192 193 189 160 200 210 207 202 204 201 192 204 200 193 192 192 195 207 168 182 182 183 188 196 200 209 213 213 212 208 209 212 212 212 212 214 214 206 199 198 200 197 196 196 196
11 26 20 346 20 283 274 225 274 321 290 133 127 110 104 102 103 105 106 109 138 146 123 352 299 261 293 284 281 249 248 334 142 152 159 157 163 190 203 236 217 194 155 198 193 194 228 213 205 204 191 195 202 187 188 189 197 190 173 177 190 185 188 194 199 204 209 213 216 214 212 214 213 214 214 213 216 210 200 199 200 202 198 198 200
24 15 40 22 331 324 338 294 208 212 231 151 127 108 95 95 104 116 99 120 128 145 148 141 288 281 264 250 234 228 217 43 23 167 164 181 165 177 173 232 267 180 195 203 204 213 214 207 200 206 208 186 191 195 191 193 205 182 178 174 188 190 189 193 199 199 203 210 215 215 215 217 218 214 214 214 213 216 203 200 202 204 204 205 206
15 29 13 27 26 38 305 299 308 289 228 147 132 118 108 97 93 105 130 127 120 110 95 103 179 255 267 251 235 226 181 188 201 199 162 146 159 134 296 258 209 219 202 215 213 227 217 206 210 210 203 181 190 198 187 191 208 171 179 177 180 193 194 193 197 199 200 207 212 214 217 219 221 209 211 214 215 216 209 201 203 206 210 211 213
352 354 35 2 357 19 287 299 232 240 312 317 121 131 132 120 121 139 123 120 130 133 126 131 214 243 260 281 282 279 240 190 195 220 214 154 133 128 84 276 273 215 203 218 221 228 209 203 195 209 213 190 185 183 179 192 190 170 181 183 181 187 198 196 198 199 199 203 208 214 218 217 220 215 209 215 217 216 212 204 209 210 213 214 215
357 342 347 349 19 350 337 319 319 297 319 354 309 104 128 118 123 130 124 122 120 125 129 144 194 215 239 287 277 272 258 248 208 213 207 197 175 171 173 237 247 249 244 219 239 206 223 204 199 198 201 205 180 180 187 192 182 173 182 190 182 190 192 196 199 200 200 202 205 209 221 224 216 219 217 218 219 219 214 206 213 216 217 218 218
322 30 332 332 358 9 357 352 341 358 328 288 274 348 95 114 112 112 125 126 133 120 125 136 173 214 231 238 251 257 243 247 239 205 210 194 195 192 194 210 233 260 254 277 281 254 205 218 220 228 175 202 172 184 188 194 175 177 181 193 199 180 183 196 199 202 201 202 205 208 212 225 226 217 217 220 221 222 221 212 212 220 220 220 220
310 301 315 316 327 344 329 344 336 332 18 232 235 179 7 93 114 108 96 111 90 75 90 107 144 226 229 238 254 256 262 258 252 231 214 208 193 200 227 270 278 269 260 254 236 264 257 244 253 276 211 197 177 177 182 179 170 180 181 188 201 181 179 192 200 201 203 203 206 208 210 214 224 231 221 216 221 225 226 223 215 216 220 221 222
312 309 251 288 305 319 292 298 303 323 328 318 289 183 220 174 128 125 123 132 107 85 72 75 60 255 249 250 247 245 265 257 263 270 245 222 206 215 224 257 263 263 246 234 246 263 280 289 293 282 296 289 165 166 185 184 172 188 187 187 188 178 182 187 197 203 203 204 206 207 209 211 214 221 226 221 219 223 227 231 221 216 218 219 220
303 305 297 225 246 289 300 265 245 256 296 316 338 324 205 174 145 133 141 155 116 102 80 53 126 134 264 244 250 262 271 293 274 254 259 284 250 215 234 239 253 266 257 246 239 230 256 257 263 277 274 279 289 195 185 183 177 184 191 188 190 183 184 185 189 202 207 207 208 207 209 211 213 216 218 223 225 221 224 229 229 219 220 221 220
318 312 312 304 201 243 264 266 262 252 271 324 346 336 322 271 195 157 153 148 125 112 111 129 13 51 301 218 244 253 226 219 241 264 318 338 335 308 296 281 274 273 283 274 249 240 234 250 231 237 229 238 231 262 248 175 184 183 194 195 192 184 185 187 187 200 201 209 207 209 210 211 213 215 218 221 222 223 222 224 228 226 221 223 225
317 321 323 324 317 237 228 268 261 197 152 6 269 308 327 329 306 194 149 142 133 131 147 162 147 151 246 265 229 220 235 228 216 213 204 206 205 251 318 335 334 330 324 321 342 325 306 278 249 243 244 248 248 221 237 220 161 193 196 201 201 196 185 187 195 195 195 202 207 207 209 212 213 215 218 221 224 224 222 221 225 226 224 223 224
331 339 326 328 323 322 313 277 283 278 215 121 272 254 278 300 312 328 329 151 148 154 146 157 175 157 196 252 260 229 198 189 168 249 348 358 8 353 3 18 322 314 344 355 343 319 352 6 333 336 343 328 307 275 227 216 179 184 206 205 202 204 204 194 192 207 181 195 202 206 208 209 210 214 216 219 222 225 226 225 223 224 225 224 224
2 346 342 333 337 321 311 303 291 278 228 154 258 248 246 263 279 292 305 298 169 163 171 183 179 178 188 221 273 262 197 179 146 153 164 191 201 278 309 111 154 125 99 52 298 286 262 193 177 273 306 296 329 326 321 307 249 205 208 216 204 198 202 205 211 197 159 176 191 211 212 211 212 214 216 220 223 225 228 229 229 228 227 226 226
9 355 349 338 341 340 318 322 317 329 340 293 340 334 237 229 260 277 286 281 281 197 173 173 201 202 187 226 285 285 274 139 150 138 127 110 199 248 140 238 272 341 80 115 174 239 263 259 243 218 274 281 164 292 315 337 328 301 249 284 258 237 195 197 205 208 144 184 202 196 196 200 208 214 220 223 226 229 231 232 234 236 236 233 230
7 1 348 347 342 323 319 317 327 318 359 38 26 17 360 337 268 240 253 289 298 275 244 211 189 197 206 208 222 230 247 180 146 133 145 154 193 288 287 238 229 218 191 222 232 231 240 244 237 235 201 255 308 281 305 333 353 319 315 290 279 262 245 218 196 195 188 161 173 196 224 219 218 218 221 223 226 227 229 232 235 237 238 237 236
12 3 358 353 348 336 334 328 340 30 52 38 31 5 351 360 357 12 4 345 329 310 296 286 252 200 204 238 249 267 279 204 180 172 167 173 168 189 205 209 224 158 175 211 256 228 225 242 262 219 219 244 234 268 264 251 225 239 293 357 310 303 288 266 245 215 186 162 181 177 194 189 199 207 206 215 226 226 234 232 238 239 239 239 238
10 4 7 9 353 344 343 11 55 47 39 42 16 18 16 6 350 345 342 335 343 322 300 281 273 249 230 227 235 255 276 248 211 199 188 191 196 203 230 240 232 230 224 236 231 233 242 248 244 230 226 241 221 200 227 236 232 290 298 301 280 283 355 303 317 299 162 131 132 178 189 182 196 212 206 217 224 208 216 215 222 224 230 232 236
18 21 4 11 17 21 35 50 50 52 42 23 10 15 18 15 9 346 326 322 295 280 261 260 272 268 240 240 239 237 226 235 223 206 197 198 199 206 208 218 232 221 217 227 230 237 238 238 240 225 230 245 231 201 217 232 215 236 259 255 264 282 313 334 301 302 338 114 147 187 228 196 186 212 218 224 223 211 214 219 216 218 225 225 225
21 21 23 20 26 29 30 42 44 42 40 15 16 15 13 11 8 338 308 294 295 288 289 266 258 255 255 250 245 223 201 224 227 187 190 201 214 222 222 229 233 239 238 223 229 232 227 245 248 237 233 237 238 192 215 212 234 235 243 266 283 275 39 249 275 279 303 92 146 198 252 218 205 212 229 235 227 216 218 219 217 219 222 227 229
23 41 36 27 31 39 44 47 46 34 31 9 12 11 9 2 360 335 315 307 304 293 290 287 321 322 331 326 294 236 211 206 203 207 218 233 185 191 211 223 230 223 227 240 240 235 255 251 251 253 240 258 263 224 182 201 162 217 244 244 223 152 165 208 221 241 267 84 304 252 254 236 206 231 240 248 246 241 237 223 218 215 220 222 224
37 39 57 43 32 56 53 50 49 38 25 3 5 6 1 355 350 342 300 306 288 285 288 302 309 312 336 339 322 334 348 34 16 359 341 214 206 219 207 205 219 215 219 227 229 232 232 235 241 248 253 253 267 276 290 138 161 250 282 241 240 0 235 248 266 233 216 177 213 218 275 253 206 233 247 256 243 247 245 244 224 218 219 221 221
34 34 50 57 54 56 73 71 60 43 23 355 6 7 3 354 343 325 290 284 277 265 263 293 316 317 300 288 303 292 53 66 22 347 26 350 317 216 200 282 295 304 273 213 207 205 208 224 232 244 257 259 263 269 274 153 198 211 216 244 306 258 254 274 286 266 261 214 212 196 251 267 183 209 240 250 249 241 246 246 239 223 220 221 220
59 58 61 69 63 54 52 67 60 57 31 6 4 10 5 2 343 320 317 305 289 292 314 332 320 313 306 289 280 17 70 58 14 17 12 356 358 351 320 282 274 269 272 288 324 283 214 200 215 231 245 249 247 255 255 231 152 221 265 271 263 266 281 286 277 278 257 236 205 204 241 259 242 211 237 245 247 244 241 247 236 230 226 222 221
63 44 52 69 62 46 41 29 29 57 24 6 4 10 5 4 353 329 328 327 313 320 326 243 239 273 13 31 46 52 47 37 12 18 8 7 19 6 0 341 329 326 313 302 295 331 344 318 298 288 282 283 282 280 278 257 233 223 219 235 243 227 236 251 262 260 258 256 223 201 223 248 254 245 242 245 243 243 241 242 248 233 226 225 222
51 25 25 74 76 62 44 39 26 47 34 22 9 2 5 6 360 342 326 325 332 32 0 353 1 69 65 62 57 53 45 28 17 21 11 2 22 13 355 347 334 329 322 5 4 338 348 353 337 309 290 287 290 289 285 282 278 271 212 250 253 248 255 251 260 257 266 253 246 200 219 235 247 252 254 256 266 251 248 248 250 260 240 231 228
49 21 348 40 69 79 75 87 40 36 110 53 10 3 5 13 10 343 350 10 19 8 360 356 350 73 85 69 64 64 58 47 38 33 18 4 15 13 0 324 314 301 344 10 344 347 339 336 335 339 330 320 306 289 271 260 255 244 221 237 248 241 247 250 254 268 274 262 253 205 228 239 243 243 242 263 263 265 262 267 267 315 6 3 337